• In Hungary
  • List of Countries
  • For 7 days
  • Water Temperature
  • Satellite Maps
  • Weather Map
  • News
  • Weather Widgets
  • user-avatar
    Login

    Hourly Weather Gornyy

    Today, 14 November, Wednesday

    Time Temperature Precipitation Wind Pressure Humidity
    00:00 -6°C° 0 mm 1 mps 779 mmHg 32%
    01:00 -6°C° 0 mm 1 mps 779 mmHg 33%
    02:00 -6°C° 0 mm 1 mps 779 mmHg 33%
    03:00 -7°C° 0 mm 1 mps 779 mmHg 36%
    04:00 -7°C° 0 mm 1 mps 778 mmHg 36%
    05:00 -7°C° 0 mm 1 mps 778 mmHg 36%
    06:00 -7°C° 0 mm 1 mps 778 mmHg 36%
    07:00 -6°C° 0 mm 1 mps 778 mmHg 34%
    08:00 -6°C° 0 mm 1 mps 777 mmHg 33%
    09:00 -4°C° 0 mm 1 mps 777 mmHg 31%
    10:00 -5°C° 0 mm 2 mps 777 mmHg 28%
    11:00 -4°C° 0 mm 2 mps 777 mmHg 25%
    12:00 -3°C° 0 mm 2 mps 776 mmHg 22%
    13:00 -3°C° 0 mm 2 mps 776 mmHg 22%
    14:00 -2°C° 0 mm 2 mps 776 mmHg 23%
    15:00 0°C° 0 mm 1 mps 775 mmHg 23%
    16:00 -1°C° 0 mm 1 mps 775 mmHg 24%
    17:00 -4°C° 0 mm 2 mps 775 mmHg 26%
    18:00 -5°C° 0 mm 2 mps 775 mmHg 27%
    19:00 -5°C° 0 mm 2 mps 775 mmHg 27%
    20:00 -5°C° 0 mm 2 mps 775 mmHg 27%
    21:00 -5°C° 0 mm 2 mps 775 mmHg 27%
    22:00 -5°C° 0 mm 2 mps 775 mmHg 27%
    23:00 -6°C° 0 mm 2 mps 775 mmHg 26%

    Tomorrow, 15 November, Thursday

    Time Temperature Precipitation Wind Pressure Humidity
    00:00 -6°C° 0 mm 2 mps 775 mmHg 26%
    01:00 -6°C° 0 mm 2 mps 775 mmHg 26%
    02:00 -6°C° 0 mm 2 mps 775 mmHg 26%
    03:00 -6°C° 0 mm 2 mps 775 mmHg 25%
    04:00 -6°C° 0 mm 2 mps 775 mmHg 26%
    05:00 -6°C° 0 mm 2 mps 775 mmHg 26%
    06:00 -7°C° 0 mm 2 mps 775 mmHg 26%
    07:00 -6°C° 0 mm 2 mps 776 mmHg 25%
    08:00 -5°C° 0 mm 2 mps 776 mmHg 23%
    09:00 -6°C° 0 mm 3 mps 776 mmHg 22%
    10:00 -5°C° 0 mm 3 mps 776 mmHg 21%
    11:00 -2°C° 0 mm 3 mps 776 mmHg 19%
    12:00 -1°C° 0 mm 3 mps 776 mmHg 17%
    13:00 -1°C° 0 mm 3 mps 776 mmHg 18%
    14:00 -1°C° 0 mm 2 mps 776 mmHg 19%
    15:00 -2°C° 0 mm 2 mps 776 mmHg 20%
    16:00 -2°C° 0 mm 2 mps 776 mmHg 21%
    17:00 -4°C° 0 mm 3 mps 776 mmHg 22%
    18:00 -5°C° 0 mm 3 mps 776 mmHg 24%
    19:00 -5°C° 0 mm 3 mps 776 mmHg 24%
    20:00 -5°C° 0 mm 3 mps 777 mmHg 24%
    21:00 -6°C° 0 mm 3 mps 777 mmHg 24%
    22:00 -5°C° 0 mm 2 mps 777 mmHg 25%
    23:00 -5°C° 0 mm 2 mps 777 mmHg 25%

    Day after tomorrow, 16 November, Friday

    Time Temperature Precipitation Wind Pressure Humidity
    00:00 -5°C° 0 mm 2 mps 777 mmHg 25%
    01:00 -5°C° 0 mm 2 mps 777 mmHg 25%
    02:00 -7°C° 0 mm 3 mps 777 mmHg 26%
    03:00 -7°C° 0 mm 3 mps 777 mmHg 26%
    04:00 -7°C° 0 mm 3 mps 777 mmHg 26%
    05:00 -7°C° 0 mm 3 mps 777 mmHg 27%
    06:00 -7°C° 0 mm 3 mps 777 mmHg 27%
    07:00 -7°C° 0 mm 3 mps 777 mmHg 26%
    08:00 -6°C° 0 mm 3 mps 778 mmHg 25%
    09:00 -5°C° 0 mm 3 mps 778 mmHg 24%
    10:00 -4°C° 0 mm 3 mps 778 mmHg 22%
    11:00 -2°C° 0 mm 3 mps 778 mmHg 20%
    12:00 -1°C° 0 mm 3 mps 777 mmHg 19%
    13:00 -1°C° 0 mm 3 mps 777 mmHg 20%
    14:00 -1°C° 0 mm 3 mps 777 mmHg 21%
    15:00 -2°C° 0 mm 3 mps 777 mmHg 22%
    16:00 -2°C° 0 mm 3 mps 777 mmHg 24%
    17:00 -4°C° 0 mm 3 mps 777 mmHg 25%
    18:00 -5°C° 0 mm 3 mps 777 mmHg 27%
    19:00 -5°C° 0 mm 3 mps 777 mmHg 27%
    20:00 -4°C° 0 mm 2 mps 777 mmHg 28%
    21:00 -4°C° 0 mm 2 mps 777 mmHg 28%
    22:00 -5°C° 0 mm 2 mps 776 mmHg 29%
    23:00 -5°C° 0 mm 2 mps 776 mmHg 29%

    17 November, Saturday

    Time Temperature Precipitation Wind Pressure Humidity
    00:00 -5°C° 0 mm 2 mps 776 mmHg 30%
    01:00 -5°C° 0 mm 2 mps 776 mmHg 30%
    02:00 -5°C° 0 mm 2 mps 775 mmHg 30%
    03:00 -5°C° 0 mm 2 mps 775 mmHg 31%
    04:00 -4°C° 0 mm 1 mps 775 mmHg 31%
    05:00 -4°C° 0 mm 1 mps 774 mmHg 31%
    06:00 -4°C° 0 mm 1 mps 774 mmHg 31%
    07:00 -3°C° 0 mm 1 mps 774 mmHg 29%
    08:00 -2°C° 0 mm 1 mps 774 mmHg 28%
    09:00 -2°C° 0 mm 1 mps 773 mmHg 26%
    10:00 -1°C° 0 mm 1 mps 773 mmHg 24%
    11:00 0°C° 0 mm 1 mps 772 mmHg 21%
    12:00 +2°C° 0 mm 1 mps 772 mmHg 19%
    13:00 +1°C° 0 mm 1 mps 771 mmHg 20%
    14:00 +1°C° 0 mm 1 mps 771 mmHg 22%
    15:00 +1°C° 0 mm 1 mps 770 mmHg 23%
    16:00 0°C° 0 mm 1 mps 770 mmHg 24%
    17:00 0°C° 0 mm 1 mps 769 mmHg 24%
    18:00 -1°C° 0 mm 1 mps 769 mmHg 25%
    19:00 -3°C° 0 mm 2 mps 769 mmHg 24%
    20:00 -3°C° 0 mm 2 mps 768 mmHg 24%
    21:00 -3°C° 0 mm 2 mps 768 mmHg 24%
    22:00 -4°C° 0 mm 2 mps 767 mmHg 23%
    23:00 -4°C° 0 mm 2 mps 767 mmHg 23%

    18 November, Sunday

    Time Temperature Precipitation Wind Pressure Humidity
    00:00 -4°C° 0 mm 2 mps 766 mmHg 23%
    01:00 -4°C° 0 mm 2 mps 766 mmHg 23%
    02:00 -4°C° 0 mm 2 mps 766 mmHg 23%
    03:00 -4°C° 0 mm 2 mps 765 mmHg 23%
    04:00 -5°C° 0 mm 2 mps 765 mmHg 24%
    05:00 -5°C° 0 mm 2 mps 765 mmHg 24%
    06:00 -5°C° 0 mm 2 mps 764 mmHg 25%
    07:00 -4°C° 0 mm 2 mps 764 mmHg 24%
    08:00 -4°C° 0 mm 2 mps 764 mmHg 24%
    09:00 -1°C° 0 mm 1 mps 764 mmHg 23%
    10:00 -2°C° 0 mm 2 mps 764 mmHg 22%
    11:00 -1°C° 0 mm 2 mps 764 mmHg 20%
    12:00 +1°C° 0 mm 2 mps 764 mmHg 19%
    13:00 +1°C° 0 mm 2 mps 764 mmHg 21%
    14:00 +1°C° 0 mm 2 mps 764 mmHg 23%
    15:00 +1°C° 0 mm 1 mps 764 mmHg 25%
    16:00 -1°C° 0 mm 2 mps 764 mmHg 26%
    17:00 -2°C° 0 mm 2 mps 764 mmHg 27%
    18:00 -2°C° 0 mm 2 mps 764 mmHg 28%
    19:00 -2°C° 0 mm 2 mps 765 mmHg 28%
    20:00 -3°C° 0 mm 2 mps 765 mmHg 28%
    21:00 -3°C° 0 mm 2 mps 765 mmHg 28%
    22:00 -3°C° 0 mm 2 mps 765 mmHg 29%
    23:00 -3°C° 0 mm 2 mps 766 mmHg 29%

    19 November, Monday

    Time Temperature Precipitation Wind Pressure Humidity
    00:00 -4°C° 0 mm 3 mps 766 mmHg 29%
    01:00 -4°C° 0 mm 3 mps 766 mmHg 29%
    02:00 -4°C° 0 mm 3 mps 767 mmHg 29%
    03:00 -4°C° 0 mm 3 mps 767 mmHg 29%
    04:00 -5°C° 0 mm 3 mps 767 mmHg 28%
    05:00 -5°C° 0 mm 3 mps 767 mmHg 28%
    06:00 -5°C° 0 mm 3 mps 768 mmHg 27%
    07:00 -4°C° 0 mm 3 mps 768 mmHg 26%
    08:00 -4°C° 0 mm 4 mps 769 mmHg 25%
    09:00 -3°C° 0 mm 4 mps 769 mmHg 23%
    10:00 -3°C° 0 mm 4 mps 769 mmHg 23%
    11:00 -2°C° 0 mm 4 mps 770 mmHg 22%
    12:00 -1°C° 0 mm 4 mps 770 mmHg 21%
    13:00 -1°C° 0 mm 4 mps 770 mmHg 22%
    14:00 -1°C° 0 mm 4 mps 770 mmHg 24%
    15:00 -1°C° 0 mm 3 mps 770 mmHg 26%
    16:00 -1°C° 0 mm 3 mps 770 mmHg 27%
    17:00 -3°C° 0 mm 4 mps 771 mmHg 29%
    18:00 -4°C° 0 mm 4 mps 771 mmHg 30%
    19:00 -4°C° 0 mm 4 mps 771 mmHg 30%
    20:00 -4°C° 0 mm 3 mps 771 mmHg 29%
    21:00 -5°C° 0 mm 3 mps 771 mmHg 29%
    22:00 -5°C° 0 mm 3 mps 771 mmHg 29%
    23:00 -5°C° 0 mm 3 mps 771 mmHg 29%
    Show more